TimeCST,TemperatureF,Dew PointF,Humidity,Sea Level PressureIn,VisibilityMPH,Wind Direction,Wind SpeedMPH,Gust SpeedMPH,PrecipitationIn,Events,Conditions,WindDirDegrees,DateUTC
12:15 AM,42.8,33.8,70,30.31,10.0,Calm,Calm,-,N/A,,Overcast,0,2013-01-27 06:15:00
12:35 AM,39.2,33.8,81,30.30,10.0,NNE,3.5,-,N/A,,Mostly Cloudy,30,2013-01-27 06:35:00
12:55 AM,41.0,35.6,81,30.31,10.0,Calm,Calm,-,N/A,,Mostly Cloudy,0,2013-01-27 06:55:00
1:15 AM,41.0,35.6,81,30.31,10.0,Calm,Calm,-,N/A,,Overcast,0,2013-01-27 07:15:00
1:35 AM,42.8,35.6,76,30.31,10.0,Calm,Calm,-,N/A,,Overcast,0,2013-01-27 07:35:00
1:55 AM,42.8,33.8,70,30.30,10.0,ENE,5.8,-,N/A,,Overcast,60,2013-01-27 07:55:00
2:15 AM,42.8,33.8,70,30.31,10.0,NE,5.8,-,N/A,,Overcast,50,2013-01-27 08:15:00
2:35 AM,44.6,32.0,61,30.32,10.0,ENE,5.8,-,N/A,,Mostly Cloudy,60,2013-01-27 08:35:00
2:55 AM,42.8,33.8,70,30.32,10.0,ENE,6.9,-,N/A,,Mostly Cloudy,70,2013-01-27 08:55:00
3:15 AM,44.6,33.8,66,30.32,10.0,ENE,5.8,-,N/A,,Overcast,70,2013-01-27 09:15:00
3:35 AM,42.8,33.8,70,30.32,10.0,ENE,6.9,-,N/A,,Overcast,60,2013-01-27 09:35:00
3:55 AM,42.8,33.8,70,30.32,10.0,ENE,5.8,-,N/A,,Overcast,60,2013-01-27 09:55:00
4:15 AM,42.8,32.0,66,30.32,10.0,ENE,6.9,-,N/A,,Overcast,70,2013-01-27 10:15:00
4:35 AM,42.8,32.0,66,30.32,10.0,ENE,6.9,-,N/A,,Overcast,60,2013-01-27 10:35:00
4:55 AM,42.8,32.0,66,30.32,10.0,ENE,5.8,-,N/A,,Overcast,70,2013-01-27 10:55:00
5:15 AM,42.8,32.0,66,30.33,10.0,ENE,8.1,-,N/A,,Overcast,60,2013-01-27 11:15:00
5:35 AM,42.8,32.0,66,30.34,10.0,ENE,9.2,-,N/A,,Overcast,70,2013-01-27 11:35:00
5:55 AM,42.8,30.2,61,30.35,10.0,ENE,6.9,-,N/A,,Overcast,70,2013-01-27 11:55:00
6:15 AM,42.8,32.0,66,30.36,10.0,ENE,8.1,-,N/A,,Overcast,60,2013-01-27 12:15:00
6:35 AM,42.8,32.0,66,30.37,10.0,ENE,8.1,-,N/A,,Overcast,60,2013-01-27 12:35:00
6:55 AM,42.8,32.0,66,30.37,10.0,East,6.9,-,N/A,,Overcast,80,2013-01-27 12:55:00
7:15 AM,42.8,32.0,66,30.38,10.0,East,10.4,-,N/A,,Overcast,80,2013-01-27 13:15:00
7:35 AM,42.8,32.0,66,30.37,10.0,ENE,10.4,-,N/A,,Overcast,60,2013-01-27 13:35:00
7:55 AM,42.8,32.0,66,30.38,10.0,ENE,11.5,-,N/A,,Overcast,70,2013-01-27 13:55:00
8:15 AM,42.8,33.8,70,30.38,10.0,ENE,11.5,-,N/A,,Overcast,60,2013-01-27 14:15:00
8:35 AM,42.8,33.8,70,30.38,10.0,ENE,13.8,-,N/A,,Overcast,70,2013-01-27 14:35:00
8:55 AM,42.8,33.8,70,30.39,10.0,ENE,9.2,-,N/A,,Overcast,60,2013-01-27 14:55:00
9:15 AM,44.6,33.8,66,30.39,10.0,ENE,10.4,-,N/A,,Overcast,60,2013-01-27 15:15:00
9:35 AM,44.6,33.8,66,30.39,10.0,East,9.2,-,N/A,,Overcast,80,2013-01-27 15:35:00
9:55 AM,44.6,33.8,66,30.40,10.0,ENE,9.2,-,N/A,,Overcast,70,2013-01-27 15:55:00
10:15 AM,44.6,33.8,66,30.39,10.0,East,9.2,-,N/A,,Overcast,90,2013-01-27 16:15:00
10:35 AM,46.4,33.8,62,30.39,10.0,NE,6.9,-,N/A,,Overcast,50,2013-01-27 16:35:00
10:55 AM,46.4,33.8,62,30.40,10.0,NE,6.9,-,N/A,,Overcast,50,2013-01-27 16:55:00
11:15 AM,46.4,33.8,62,30.39,10.0,NE,9.2,-,N/A,,Overcast,50,2013-01-27 17:15:00
11:35 AM,48.2,33.8,58,30.38,10.0,ENE,9.2,-,N/A,,Overcast,60,2013-01-27 17:35:00
11:55 AM,48.2,33.8,58,30.37,10.0,NE,10.4,-,N/A,,Overcast,50,2013-01-27 17:55:00
12:15 PM,48.2,35.6,62,30.36,10.0,NE,6.9,-,N/A,,Overcast,50,2013-01-27 18:15:00
12:35 PM,48.2,35.6,62,30.35,10.0,NE,8.1,-,N/A,,Overcast,50,2013-01-27 18:35:00
12:55 PM,48.2,35.6,62,30.34,10.0,East,9.2,-,N/A,,Overcast,80,2013-01-27 18:55:00
1:15 PM,48.2,35.6,62,30.34,10.0,ENE,6.9,-,N/A,,Overcast,60,2013-01-27 19:15:00
1:35 PM,50.0,35.6,58,30.34,10.0,NE,8.1,-,N/A,,Overcast,50,2013-01-27 19:35:00
1:55 PM,50.0,35.6,58,30.34,10.0,ENE,9.2,-,N/A,,Overcast,70,2013-01-27 19:55:00
2:15 PM,51.8,37.4,58,30.33,10.0,East,9.2,-,N/A,,Overcast,80,2013-01-27 20:15:00
2:35 PM,51.8,37.4,58,30.33,10.0,ENE,8.1,-,N/A,,Overcast,60,2013-01-27 20:35:00
2:55 PM,51.8,37.4,58,30.33,10.0,ENE,6.9,-,N/A,,Overcast,60,2013-01-27 20:55:00
3:15 PM,51.8,37.4,58,30.33,10.0,ENE,8.1,-,N/A,,Overcast,60,2013-01-27 21:15:00
3:35 PM,51.8,37.4,58,30.33,10.0,NE,9.2,-,N/A,,Overcast,50,2013-01-27 21:35:00
3:55 PM,51.8,37.4,58,30.33,10.0,NE,6.9,-,N/A,,Overcast,40,2013-01-27 21:55:00
4:15 PM,53.6,37.4,54,30.33,10.0,NE,6.9,-,N/A,,Overcast,50,2013-01-27 22:15:00
4:35 PM,51.8,37.4,58,30.34,10.0,NE,6.9,-,N/A,,Overcast,50,2013-01-27 22:35:00
4:55 PM,51.8,37.4,58,30.33,10.0,NE,4.6,-,N/A,,Overcast,50,2013-01-27 22:55:00
5:16 PM,51.8,37.4,58,30.33,10.0,NE,5.8,-,N/A,,Overcast,50,2013-01-27 23:16:00
5:35 PM,51.8,37.4,58,30.33,10.0,NE,6.9,-,N/A,,Mostly Cloudy,40,2013-01-27 23:35:00
5:55 PM,51.8,37.4,58,30.33,10.0,ENE,8.1,-,N/A,,Partly Cloudy,70,2013-01-27 23:55:00
6:15 PM,50.0,37.4,62,30.33,10.0,ENE,6.9,-,N/A,,Clear,70,2013-01-28 00:15:00
6:35 PM,50.0,39.2,66,30.33,10.0,ENE,6.9,-,N/A,,Clear,70,2013-01-28 00:35:00
6:55 PM,50.0,37.4,62,30.33,10.0,East,6.9,-,N/A,,Clear,80,2013-01-28 00:55:00
7:15 PM,48.2,37.4,66,30.34,10.0,ENE,5.8,-,N/A,,Clear,70,2013-01-28 01:15:00
7:35 PM,48.2,37.4,66,30.34,10.0,ENE,6.9,-,N/A,,Scattered Clouds,60,2013-01-28 01:35:00
7:55 PM,50.0,37.4,62,30.34,10.0,NE,6.9,-,N/A,,Overcast,50,2013-01-28 01:55:00
8:15 PM,50.0,39.2,66,30.35,10.0,NE,6.9,-,N/A,,Overcast,50,2013-01-28 02:15:00
8:35 PM,48.2,37.4,66,30.33,10.0,ESE,6.9,-,N/A,,Mostly Cloudy,110,2013-01-28 02:35:00
8:55 PM,50.0,37.4,62,30.34,10.0,East,5.8,-,N/A,,Mostly Cloudy,100,2013-01-28 02:55:00
9:15 PM,51.8,37.4,58,30.34,10.0,East,5.8,-,N/A,,Overcast,90,2013-01-28 03:15:00
9:35 PM,50.0,35.6,58,30.34,10.0,ESE,6.9,-,N/A,,Scattered Clouds,110,2013-01-28 03:35:00
9:55 PM,50.0,35.6,58,30.33,10.0,East,6.9,-,N/A,,Mostly Cloudy,100,2013-01-28 03:55:00
10:15 PM,50.0,33.8,54,30.34,10.0,ESE,5.8,-,N/A,,Mostly Cloudy,110,2013-01-28 04:15:00
10:35 PM,48.2,33.8,58,30.34,10.0,East,5.8,-,N/A,,Partly Cloudy,80,2013-01-28 04:35:00
10:55 PM,46.4,33.8,62,30.35,10.0,Calm,Calm,-,N/A,,Clear,0,2013-01-28 04:55:00
11:15 PM,46.4,33.8,62,30.35,10.0,East,6.9,-,N/A,,Clear,100,2013-01-28 05:15:00
11:35 PM,46.4,33.8,62,30.35,10.0,East,4.6,-,N/A,,Clear,100,2013-01-28 05:35:00
11:55 PM,44.6,33.8,66,30.36,10.0,NNE,4.6,-,N/A,,Clear,20,2013-01-28 05:55:00